#timestamp,LO_Frequency,Hit,StdDev 
1624942815.5,286047003.9,P
1624942835.3,286047004.3,P
1624942855.1,286047001.7,N
1624942875.9,286047001.6,N
1624942895.7,286047002.2,N
1624942915.5,286046999.9,N
1624942935.4,286047000.0,N
1624942955.2,286046999.7,N
1624942975.1,286047002.7,N
1624942976.0,286047002.7,N
1624942995.8,286047002.6,N
1624943015.6,286047002.8,N
1624943035.5,286047002.6,N
1624943055.3,286046999.7,N
1624943075.2,286047002.8,N
1624943095.9,286047002.6,N
1624943115.7,286047002.4,N
1624943135.6,286047001.9,N
1624943155.4,286047002.4,N
1624943175.2,286047002.3,N
1624943195.1,286046999.9,N
1624943196.0,286046999.9,N
1624943215.8,286046999.7,N
1624943235.7,286047001.5,N
1624943255.5,286047000.0,N
1624943275.3,286047002.4,N
1624943295.2,286046999.9,N
1624943315.0,286046999.9,N
1624943315.9,286046999.9,N
1624943335.7,286047000.6,N
1624943355.6,286046999.9,N
1624943375.4,286047000.4,N
1624943395.3,286047000.5,N
1624943415.1,286046998.1,N
1624943416.0,286046998.1,N
1624943435.8,286046999.1,N
1624943455.7,286046999.0,N
1624943475.5,286046998.8,N
1624943495.3,286046997.2,N
1624943515.2,286046997.8,N
1624943535.0,286046995.3,N
1624943535.9,286046995.3,N
1624943555.8,286046997.8,N
1624943575.6,286046997.0,N
1624943595.4,286046999.1,N
1624943615.3,286046999.1,N
1624943635.1,286046999.6,N
1624943655.9,286046999.1,N
1624943675.7,286046999.6,N
1624943695.5,286046996.7,N
1624943715.4,286046996.5,N
1624943735.2,286046997.2,N
1624943755.1,286046997.7,N
1624943756.0,286046997.7,N
1624943775.8,286046997.3,N
1624943795.6,286046998.0,N
1624943815.5,286046997.3,N
1624943835.3,286046999.4,N
1624943855.2,286046997.3,N
1624943875.0,286046997.4,N
1624943875.9,286046997.4,N
1624943895.8,286046997.3,N
1624943915.6,286046997.4,N
1624943935.4,286046997.7,N
1624943955.3,286046995.4,Y
1624943975.1,286046997.7,P
1624943995.8,286046997.7,P
1624944015.7,286046997.0,P
1624944035.5,286046997.5,Y
1624944055.4,286046998.5,P
1624944075.2,286046998.2,P
1624944095.0,286046998.7,P
1624944095.9,286046998.7,Y
1624944115.8,286047000.6,P
1624944135.6,286046998.3,N
1624944155.4,286046999.5,N
1624944175.3,286046996.9,Y
1624944195.1,286046999.5,P
1624944215.9,286046997.3,P
1624944235.7,286046997.1,P
1624944255.5,286046996.9,N
1624944275.4,286046999.6,N
1624944295.2,286046999.2,N
1624944315.1,286046996.5,Y
1624944316.0,286046996.5,P
1624944335.8,286047000.7,N
1624944355.6,286047000.2,N
1624944375.5,286047000.2,N
1624944395.3,286047002.1,N
1624944415.1,286047002.7,N
1624944435.9,286047002.0,N
1624944455.7,286047001.3,N
1624944475.6,286047003.2,N
1624944525.4,286047006.0,E
1624944535.3,286047001.7,N
1624944555.2,286046998.9,P
1624944575.0,286046996.6,N
1624944575.9,286046996.6,N
1624944595.8,286046999.3,N
1624944615.6,286046999.1,N
1624944635.4,286046998.4,N
1624944655.3,286046998.3,N
1624944675.1,286046999.2,N
1624944695.9,286046999.3,N
1624944715.7,286047001.1,N
1624944735.5,286046998.6,N
1624944755.4,286047002.3,N
1624944775.2,286046999.7,N
1624944795.0,286047000.6,N
1624944795.9,286047000.6,N
1624944815.8,286046999.5,N
1624944835.6,286046996.5,N
1624944855.5,286046997.9,N
1624944875.3,286046995.8,N
1624944895.1,286046997.9,N
1624944915.9,286046997.7,N
1624944935.7,286046997.1,N
1624944955.5,286046995.3,N
1624944975.4,286046997.4,N
1624944995.2,286046996.8,N
1624945015.1,286046996.7,N
1624945016.0,286046996.7,N
1624945035.8,286046997.1,N
1624945055.6,286046999.6,N
1624945075.5,286046998.7,N
1624945095.3,286046997.0,N
1624945115.1,286046999.1,N
1624945135.9,286046999.2,N
1624945155.7,286046999.5,N
1624945175.6,286046996.8,N
1624945195.4,286046997.2,N
1624945215.2,286046997.8,N
1624945235.1,286046997.3,N
1624945236.0,286046997.3,N
1624945255.8,286046995.1,Y
1624945275.7,286046997.9,P
1624945295.5,286046999.4,P
1624945315.3,286046998.9,N
1624945335.2,286046999.8,N
1624945355.0,286047002.1,N
1624945355.9,286047002.1,N
1624945375.7,286047002.2,N
1624945395.6,286047003.7,N
1624945415.4,286047004.0,N
1624945435.3,286047001.7,N
1624945455.1,286047001.6,N
1624945456.0,286047001.6,N
1624945475.8,286047001.3,N
1624945495.7,286047003.1,N
1624945515.5,286047003.2,N
1624945535.4,286047005.7,Y
1624945555.2,286047002.6,P
1624945575.0,286047000.1,N
1624945575.9,286047000.1,N
1624945595.8,286047002.3,N
1624945615.6,286046999.7,N
1624945635.4,286047001.5,N
1624945655.3,286047001.5,N
1624945675.1,286047002.2,N
1624945695.9,286047002.2,N
1624945715.7,286047001.4,N
1624945735.5,286047001.8,N
1624945755.4,286047002.5,N
1624945775.2,286047003.4,Y
1624945795.1,286047004.3,P
1624945796.0,286047004.3,P
1624945815.8,286047004.4,P
1624945835.6,286047004.3,Y
1624945855.5,286046998.6,P
1624945875.3,286046998.3,N
1624945895.1,286046998.7,N
1624945915.9,286046999.5,N
1624945935.7,286046999.1,N
1624945955.6,286046996.9,N
1624945975.4,286046998.6,N
1624945995.2,286046998.3,N
1624946015.1,286046997.1,N
1624946016.0,286046997.1,N
1624946035.8,286046997.2,N
1624946055.7,286046999.1,N
1624946075.5,286046998.4,N
1624946095.3,286046998.2,N
1624946115.2,286046998.5,N
1624946135.0,286046998.5,N
1624946135.9,286046998.5,N
1624946155.7,286047001.1,N
1624946175.6,286047001.2,N
1624946195.4,286047001.0,N
1624946215.3,286046998.2,N
1624946235.1,286047000.6,N
1624946255.8,286047001.2,N
1624946275.7,286046998.7,N
1624946295.5,286046999.3,N
1624946315.4,286046996.7,N
1624946335.2,286046996.6,N
1624946355.0,286047001.1,N
1624946355.9,286047001.1,N
1624946375.8,286046998.4,N
1624946395.6,286046996.5,N
